COSMOS 1691 DEB, 20284

Orbit data source: Space-Track

COSMOS 1691 DEB, 20284 is space debris in LEO originally from a launch on Wed, 09 Oct 1985 UTC launched from the Plesetsk Missile And Space Complex (PKMTR). Debris objects in space refer to the collection of defunct objects orbiting the Earth. Examples of debris include non-operational satellites, rocket bodies, and fragments generated from explosions, collisions, or faulty payload assembly.

Loading next visibility...
Identifier
20284, 1985-094X
Orbit
LEO
Country
Flag of CISCIS
Related business
Manufacturer
Unknown
Mission
Spacecraft
Bus & Motor
Unknown
Mass
Unknown
Launch date (UTC)
1985-10-09 (41 years ago)
Launch vehicle
Unknown
Launch site
Plesetsk Missile And Space Complex (PKMTR)
Object type
Payload
Rocket body
Debris
Shape & HBR
Unknown shape, 0.1 m
Radar Cross Section
Medium (>0.1 m² and <1 m²)

Expand to show TLE details & history
Last TLE update: 3 days ago

TLE from 3 days ago
0 COSMOS 1691 DEB
1 20284U 85094X   26170.35090826  .00000238  00000-0  17585-2 0  9992
2 20284  83.1907 121.8512 0219459 208.3568 308.7969 12.31621922565870
Epoch: 2026-06-19T08:25Z
TLE epoch observation values (Epoch: 2026-06-19T08:25:18.473Z)
Latitude
24.67829°
Longitude
-95.18656°
Altitude
1,438.577 km
Speed
7.192 km/s
True Right ascension
19h 54m 53s
True Declination
24° 33' 34"
Sunlit
Object was in daylight at epoch
Visualization orbit readout
Latitude
Unknown
Longitude
Unknown
Altitude
Unknown
Speed
Unknown
Apparent Right ascension
Unknown
Apparent Declination
Unknown
Sunlit
N/A
Visualization observer readout
Local Sidereal Time
00:51:26
Azimuth
Unknown
Elevation
Unknown
Doppler factor
Unknown
Orbital elements
Apogee altitude
1,713.424 km
Perigee altitude
1,365.897 km
Semi-major axis
7,917.798 km
Eccentricity
0.02195
Inclination
83.1907°
RAAN
121.8512°
Arg. of periapsis
208.3568°
True anomaly
306.80307°
Mean anomaly
308.7969°
Eccentric anomaly
307.8034°
Mean motion
3.08061 °/min
Orbital period
116.86 mins
BSTAR
0.0017585
Loading maneuver chart data...
Computing Atmospheric mass density...
Loading historical data...
Loading historical data...
Loading historical data...
Loading historical data...
Loading historical data...
Loading historical data...
Loading historical data...

Documentation

Showing up to 5 results
|